Stations météo

réclame
Mon MeteoGroup
Pescara, Italie (16230): Température de l'air & dewpoint: 05.12.2017 23:00:00 - 11.12.2017 23:00:00 (CET)Pescara, Italie (16230): Vitesse du vent: 05.12.2017 23:00:00 - 11.12.2017 23:00:00 (CET)Pescara, Italie (16230): Direction du vent: 05.12.2017 23:00:00 - 11.12.2017 23:00:00 (CET)Pescara, Italie (16230): reduced air pressure: 05.12.2017 23:00:00 - 11.12.2017 23:00:00 (CET)Pescara, Italie (16230): visibility: 05.12.2017 23:00:00 - 11.12.2017 23:00:00 (CET)Pescara, Italie (16230): Quantités de précipitations: 05.12.2017 23:00:00 - 11.12.2017 23:00:00 (CET)
Date & Time tt [°C] td [°C] ff [km/h] ff [knt] dd ppp [hPa] vv [km] rr [mm]
11.12.2017 23:00:00 21,0 4,0 54 29 SW - 10 -
11.12.2017 22:00:00 20,1 4,5 46 25 SW 1003,1 19 0,0
11.12.2017 21:00:00 20,0 4,0 18 10 SSW - 10 -
11.12.2017 20:00:00 20,0 5,0 11 6 - - 10 -
11.12.2017 19:00:00 19,6 5,2 16 9 SW 1004,6 19 -
11.12.2017 18:00:00 19,0 6,0 24 13 WSW - 10 -
11.12.2017 17:00:00 17,0 6,0 15 8 WSW - 10 -
11.12.2017 16:00:00 17,6 6,4 15 8 SW 1004,7 30 0,0
11.12.2017 15:00:00 17,0 8,0 8 4 W - 10 -
11.12.2017 14:00:00 17,0 8,0 15 8 ESE - 10 -
11.12.2017 13:00:00 17,4 7,9 13 7 E 1005,2 20 -
11.12.2017 12:00:00 - - - - - - - -
11.12.2017 11:00:00 18,0 8,0 11 6 S - 10 -
11.12.2017 10:00:00 15,7 9,0 9 5 SSW 1006,3 10 0,0
11.12.2017 09:00:00 16,0 8,0 11 6 SSW - 10 -
11.12.2017 08:00:00 15,0 8,0 9 5 SE - 10 -
11.12.2017 07:00:00 14,7 6,8 11 6 ESE 1005,3 20 -
11.12.2017 06:00:00 14,0 6,0 13 7 SSE - 10 -
11.12.2017 05:00:00 13,0 5,0 5 3 WSW - 10 -
11.12.2017 04:00:00 12,7 4,4 5 3 WSW 1006,1 10 0,0
11.12.2017 03:00:00 14,0 4,0 8 4 SSW - 10 -
11.12.2017 02:00:00 15,0 4,0 16 9 WSW - 10 -
11.12.2017 01:00:00 14,6 2,9 2 1 N 1007,7 30 -
11.12.2017 00:00:00 15,0 3,0 9 5 SSE - 10 -
10.12.2017 23:00:00 15,0 3,0 34 18 SW - 10 -
10.12.2017 22:00:00 15,3 2,5 54 29 SSW 1007,0 15 0,0
10.12.2017 21:00:00 15,0 2,0 50 27 SW - 10 -
10.12.2017 20:00:00 14,0 1,0 37 20 SW - 10 -
10.12.2017 19:00:00 12,9 1,0 39 21 SW 1009,3 15 -
10.12.2017 18:00:00 12,0 -1,0 26 14 SSW - 10 -
10.12.2017 17:00:00 10,0 -5,0 16 9 S - 10 -
10.12.2017 16:00:00 10,2 -6,9 13 7 S 1012,2 30 0,0
10.12.2017 15:00:00 11,0 -4,0 11 6 S - 10 -
10.12.2017 14:00:00 12,0 -5,0 24 13 SW - 10 -
10.12.2017 13:00:00 11,9 -6,6 22 12 SW 1015,4 30 -
10.12.2017 12:00:00 11,0 -13,0 21 11 SSW - 10 -
10.12.2017 11:00:00 9,0 -10,0 13 7 S - 10 -
10.12.2017 10:00:00 6,8 -5,8 11 6 SW 1018,9 30 0,0
10.12.2017 09:00:00 0,0 -4,0 8 4 SSW - 10 -
10.12.2017 08:00:00 -3,0 -6,0 8 4 SW - 10 -
10.12.2017 07:00:00 -2,6 -5,2 4 2 SW 1018,4 15 -
10.12.2017 06:00:00 -3,0 -5,0 5 3 SW - 10 -
10.12.2017 05:00:00 -1,0 -4,0 8 4 WSW - 10 -
10.12.2017 04:00:00 -0,4 -4,2 9 5 WSW 1018,6 15 0,0
10.12.2017 03:00:00 0,0 -4,0 5 3 WSW - 10 -
10.12.2017 02:00:00 0,0 -3,0 16 9 SW - 10 -
10.12.2017 01:00:00 0,1 -2,7 16 9 SW 1018,5 19 -
10.12.2017 00:00:00 3,0 -2,0 5 3 W - 10 -
09.12.2017 23:00:00 4,0 -2,0 8 4 NW - 10 -
09.12.2017 22:00:00 4,4 -2,7 5 3 NNW 1017,7 20 0,0
09.12.2017 21:00:00 5,0 -3,0 5 3 WSW - 10 -
09.12.2017 20:00:00 6,0 -3,0 16 9 WNW - 10 -
09.12.2017 19:00:00 6,1 -1,8 22 12 NW 1014,7 30 -
09.12.2017 18:00:00 7,0 -3,0 16 9 WNW - 10 -
09.12.2017 17:00:00 7,0 -3,0 22 12 NW - 10 -
09.12.2017 16:00:00 7,5 -2,1 22 12 NW 1010,8 30 0,0
09.12.2017 15:00:00 8,0 -1,0 28 15 NNW - 10 -
09.12.2017 14:00:00 9,0 0,0 21 11 N - 10 -
09.12.2017 13:00:00 9,1 -4,0 13 7 NW 1008,6 19 -
09.12.2017 12:00:00 9,0 -3,0 11 6 NW - 10 -
09.12.2017 11:00:00 9,0 -1,0 15 8 NNW - 10 -
09.12.2017 10:00:00 8,6 0,8 16 9 NNW 1007,7 15 0,0
09.12.2017 09:00:00 9,0 4,0 18 10 NNE - 10 -
09.12.2017 08:00:00 11,0 6,0 15 8 NNE - 10 -
09.12.2017 07:00:00 10,6 7,5 21 11 NNE 1006,1 20 -
09.12.2017 06:00:00 15,0 2,0 5 3 NNW - 10 -
09.12.2017 05:00:00 15,0 3,0 9 5 S - 10 -
09.12.2017 04:00:00 15,6 3,7 31 17 SSW 1005,1 20 0,0
09.12.2017 03:00:00 15,0 4,0 39 21 SW - 10 -
09.12.2017 02:00:00 14,0 5,0 39 21 SW - 10 -
09.12.2017 01:00:00 14,1 4,1 28 15 SW 1007,9 30 -
09.12.2017 00:00:00 15,0 4,0 22 12 WSW - 10 -
08.12.2017 23:00:00 15,0 3,0 34 18 SW - 10 -
08.12.2017 22:00:00 15,5 1,3 37 20 SW 1009,7 10 0,0
08.12.2017 21:00:00 16,0 2,0 42 23 SW - 10 -
08.12.2017 20:00:00 15,0 3,0 41 22 SW - 10 -
08.12.2017 19:00:00 14,7 3,4 37 20 SW 1012,8 15 -
08.12.2017 18:00:00 16,0 2,0 34 18 SW - 10 -
08.12.2017 17:00:00 16,0 2,0 31 17 SW - 10 -
08.12.2017 16:00:00 15,6 3,4 31 17 SW 1015,3 15 0,0
08.12.2017 15:00:00 16,0 2,0 35 19 SW - 10 -
08.12.2017 14:00:00 17,0 3,0 35 19 SW - 10 -
08.12.2017 13:00:00 17,3 3,3 34 18 SSW 1017,8 30 -
08.12.2017 12:00:00 17,0 4,0 39 21 SSW - 10 -
08.12.2017 11:00:00 16,0 3,0 26 14 SW - 10 -
08.12.2017 10:00:00 14,6 3,5 29 16 SW 1021,2 10 0,0
08.12.2017 09:00:00 14,0 4,0 18 10 S - 10 -
08.12.2017 08:00:00 10,0 2,0 8 4 SSW - 10 -
08.12.2017 07:00:00 8,7 1,6 11 6 SW 1023,3 20 -
08.12.2017 06:00:00 6,0 1,0 5 3 NNW - 10 -
08.12.2017 05:00:00 6,0 1,0 5 3 SW - 10 -
08.12.2017 04:00:00 2,3 0,5 5 3 W 1025,4 10 0,0
08.12.2017 03:00:00 3,0 1,0 9 5 WSW - 10 -
08.12.2017 02:00:00 5,0 1,0 13 7 SW - 10 -
08.12.2017 01:00:00 2,9 1,4 5 3 W 1027,3 20 -
08.12.2017 00:00:00 2,0 1,0 2 1 - - 10 -
07.12.2017 23:00:00 3,0 2,0 5 3 SW - 10 -
07.12.2017 22:00:00 3,9 2,6 8 4 SSW 1028,9 30 0,0
07.12.2017 21:00:00 3,0 2,0 9 5 SSW - 10 -
07.12.2017 20:00:00 4,0 3,0 11 6 SW - 10 -
07.12.2017 19:00:00 6,5 4,0 2 1 N 1029,9 25 -
07.12.2017 18:00:00 12,0 5,0 8 4 SSW - 10 -
07.12.2017 17:00:00 11,0 4,0 4 2 - - 10 -
07.12.2017 16:00:00 12,4 5,4 13 7 SE 1030,0 20 0,0
07.12.2017 15:00:00 13,0 5,0 11 6 ESE - 10 -
07.12.2017 14:00:00 14,0 5,0 11 6 ENE - 10 -
07.12.2017 13:00:00 12,7 4,3 9 5 NE 1031,1 15 -
07.12.2017 12:00:00 13,0 0,0 8 4 SW - 10 -
07.12.2017 11:00:00 10,0 0,0 8 4 SW - 10 -
07.12.2017 10:00:00 6,3 0,9 8 4 SW 1033,1 30 0,0
07.12.2017 09:00:00 2,0 0,0 9 5 SSW - 10 -
07.12.2017 08:00:00 -1,0 -2,0 8 4 SW - 10 -
07.12.2017 07:00:00 -0,5 -1,8 9 5 SSW 1032,7 30 -
07.12.2017 06:00:00 0,0 -1,0 9 5 SSW - 10 -
07.12.2017 05:00:00 -1,0 -2,0 9 5 SSW - 10 -
07.12.2017 04:00:00 -0,7 -1,7 11 6 SSW 1032,6 20 0,0
07.12.2017 03:00:00 0,0 -1,0 11 6 SSW - 7 -
07.12.2017 02:00:00 1,0 0,0 4 2 SSW - 4,4 -
07.12.2017 01:00:00 0,0 -1,0 8 4 SW 1032,8 15 -
07.12.2017 00:00:00 1,0 0,0 13 7 SW - 7 -
06.12.2017 23:00:00 1,0 0,0 9 5 SSW - 10 -
06.12.2017 22:00:00 2,0 0,9 8 4 SSW 1033,2 20 0,0
06.12.2017 21:00:00 3,0 2,0 8 4 SSW - 10 -
06.12.2017 20:00:00 4,0 2,0 5 3 SSW - 10 -
06.12.2017 19:00:00 3,5 1,7 11 6 SSW 1033,4 10 -
06.12.2017 18:00:00 6,0 2,0 0 0 N - 10 -
06.12.2017 17:00:00 9,0 2,0 2 1 - - 10 -
06.12.2017 16:00:00 11,6 3,1 5 3 NE 1033,1 10 0,0
06.12.2017 15:00:00 13,0 4,0 11 6 NE - 10 -
06.12.2017 14:00:00 13,0 4,0 11 6 NE - 10 -
06.12.2017 13:00:00 13,7 5,3 9 5 ENE 1033,2 10 -
06.12.2017 12:00:00 13,0 1,0 4 2 - - 10 -
06.12.2017 11:00:00 11,0 -1,0 11 6 SW - 10 -
06.12.2017 10:00:00 8,1 -0,5 8 4 SSW 1034,8 30 0,0
06.12.2017 09:00:00 3,0 -1,0 8 4 SW - 10 -
06.12.2017 08:00:00 1,0 -3,0 5 3 SSW - 10 -
06.12.2017 07:00:00 3,1 -2,9 5 3 WNW 1033,7 30 -
06.12.2017 06:00:00 2,0 -3,0 5 3 WSW - 10 -
06.12.2017 05:00:00 0,0 -3,0 4 2 - - 10 -
06.12.2017 04:00:00 -0,5 -3,1 8 4 SW 1033,9 15 0,0
06.12.2017 03:00:00 0,0 -3,0 8 4 SSW - 10 -
06.12.2017 02:00:00 0,0 -3,0 9 5 SW - 10 -
06.12.2017 01:00:00 -0,1 -2,4 8 4 SW 1034,5 15 -
06.12.2017 00:00:00 1,0 -2,0 8 4 SW - 10 -
05.12.2017 23:00:00 1,0 -2,0 9 5 SW - 10 -

tt = Température de l'air
td = dewpoint
ff = Vitesse du vent
dd = Direction du vent
ppp = reduced air pressure
vv = visibility
rr = Quantités de précipitations

stations d'obs. à proximité